EHI
1 2 3 2 1 0 0 0 0 0 0 0 0 0 0 0 0 0 0 0 0 0 0 0 0 0 0 0 0 0 0 0 0 0 0 0 0 0 0 0 0 0 0
0 1 2 2 1 0 0 0 0 0 0 0 0 0 0 0 0 0 0 0 0 0 0 0 0 0 0 0 0 0 0 0 0 0 0 0 0 0 0 0 0 0 0
0 0 1 1 0 0 0 0 1 1 0 0 0 0 0 0 0 0 0 0 0 0 0 0 0 0 0 0 0 0 0 0 0 0 0 0 0 0 0 0 0 0 0
0 0 0 0 0 0 0 1 2 2 1 0 0 0 0 0 0 0 0 0 0 0 0 0 0 0 0 0 0 0 0 0 0 0 0 0 0 0 0 0 0 0 0
0 0 0 0 0 0 0 1 2 3 2 1 0 0 0 0 0 0 0 0 0 0 0 0 0 0 0 0 0 0 0 0 0 0 0 0 0 0 0 0 0 0 0
0 0 0 0 0 0 0 1 2 2 2 1 0 0 0 0 0 0 0 0 0 0 0 0 0 0 0 0 0 0 0 0 0 0 0 0 0 0 0 0 0 0 0
0 0 0 0 0 0 0 0 1 1 1 0 0 0 0 0 0 0 0 0 0 0 0 0 0 0 0 0 0 0 0 0 0 0 0 0 0 0 0 0 0 0 0
0 0 0 0 0 0 0 0 0 0 0 0 0 0 0 0 0 0 0 0 0 0 0 0 0 0 0 0 0 0 0 0 0 0 0 0 0 0 0 0 0 0 0
0 0 0 0 0 0 0 0 0 0 0 0 0 0 0 0 0 0 0 0 0 0 0 0 0 0 0 0 0 0 0 0 0 0 0 0 0 0 0 0 0 0 0
0 0 0 0 0 0 0 0 0 0 0 0 0 0 0 0 0 0 0 0 0 0 0 0 0 0 0 0 0 0 0 0 0 0 0 0 0 0 0 0 0 0 0
0 0 0 0 0 0 0 0 0 0 0 0 0 0 0 0 0 0 0 0 0 0 0 0 0 0 0 0 0 0 0 0 0 0 0 0 0 0 0 0 0 0 0
0 0 0 0 0 0 0 0 0 0 0 0 0 0 0 0 0 0 0 0 0 0 0 0 0 0 0 0 0 0 0 0 0 0 0 0 0 0 0 0 0 0 0
0 0 0 0 0 0 0 0 0 0 0 0 0 0 0 0 0 0 0 0 0 0 0 0 0 0 0 0 0 0 0 0 0 0 0 0 0 0 0 0 0 0 0
0 0 0 0 0 0 0 0 0 0 0 0 0 0 0 0 0 0 0 0 0 0 0 0 0 0 0 0 0 0 0 0 0 0 0 0 0 0 0 0 0 0 0
0 0 0 0 0 0 0 0 0 0 0 0 0 0 0 0 0 0 0 0 0 0 0 0 0 0 0 0 0 0 0 0 0 0 0 0 0 0 0 0 0 0 0
0 0 0 0 0 0 0 0 0 0 0 0 0 0 0 0 0 0 0 0 0 0 0 0 0 0 0 0 0 0 0 0 0 0 0 0 0 0 0 0 0 0 0
0 0 0 0 0 0 0 0 0 0 0 0 0 0 0 0 0 0 0 0 0 0 0 0 0 0 0 0 0 0 0 0 0 0 0 0 0 0 0 0 0 0 0
0 0 0 0 0 0 0 0 0 0 0 0 0 0 0 0 0 0 0 0 0 0 0 0 0 0 0 0 0 0 0 0 0 0 0 0 0 0 0 0 0 0 0
0 0 0 0 0 0 0 0 0 0 0 0 0 0 0 0 0 0 0 0 0 0 0 0 0 0 0 0 0 0 0 0 0 0 0 0 0 0 0 0 0 0 0
0 0 0 0 0 0 0 0 0 0 0 0 0 0 0 0 0 0 0 0 0 0 0 0 0 0 0 0 0 0 0 0 0 0 0 0 0 0 0 0 0 0 0
0 0 0 0 0 0 0 0 0 0 0 0 0 0 0 0 0 0 0 0 0 0 0 0 0 0 0 0 0 0 0 0 0 0 0 0 0 0 0 0 0 0 0
0 0 0 0 0 0 0 0 0 0 0 0 0 0 0 0 0 0 0 0 0 0 0 0 0 0 0 0 0 0 0 0 0 0 0 0 0 0 0 0 0 0 0
0 0 0 0 0 0 0 0 0 0 0 0 0 0 0 0 0 0 0 0 0 0 0 0 0 0 0 0 0 0 0 0 0 0 0 0 0 0 0 0 0 0 0
0 0 0 0 0 0 0 0 0 0 0 0 0 0 0 0 0 0 0 0 0 0 0 0 0 0 0 0 0 0 0 0 0 0 0 0 0 0 0 0 0 0 0
0 0 0 0 0 0 0 0 0 0 0 0 0 0 0 0 0 0 0 0 0 0 0 0 0 0 0 0 0 0 0 0 0 0 0 0 0 0 0 0 0 0 0
0 0 0 0 0 0 0 0 0 0 0 0 0 0 0 0 0 0 0 0 0 0 0 0 0 0 0 0 0 0 0 0 0 0 0 0 0 0 0 0 0 0 0
Wind_Speed
3 3 3 2 2 2 3 3 3 3 3 3 3 3 3 3 3 2 2 5 5 5 6 6 6 5 5 4 4 3 3 3 2 3 3 3 3 4 4 5 5 5 4
4 4 3 3 3 3 3 4 4 3 3 2 2 3 3 3 3 3 2 3 4 5 5 5 5 4 4 3 3 3 3 2 1 1 2 2 3 3 4 4 4 4 4
4 4 4 3 3 3 4 3 3 3 3 2 2 2 2 3 3 3 3 2 2 3 4 4 5 4 3 3 3 3 2 1 1 2 2 2 2 2 2 3 3 3 3
5 4 4 3 3 3 3 4 3 3 3 2 2 1 2 2 3 3 3 3 2 2 2 3 3 3 3 3 2 2 2 2 1 1 2 2 2 1 1 2 2 2 3
5 5 4 3 4 3 3 4 3 3 3 3 2 2 1 2 2 3 3 3 3 3 2 2 3 2 1 1 2 1 1 1 1 1 1 0 1 1 1 2 2 2 3
5 4 4 4 4 3 3 3 4 3 3 3 3 2 1 1 1 2 3 2 2 2 2 2 2 1 1 1 0 1 1 0 0 1 1 1 1 2 2 2 2 3 3
4 4 3 4 4 4 4 4 4 4 2 2 3 2 2 2 1 1 1 2 2 2 2 2 1 1 1 2 1 0 1 1 1 1 1 2 2 2 3 3 3 3 4
4 4 4 4 4 3 4 4 4 3 2 2 3 3 1 1 1 1 1 2 2 2 2 2 2 1 1 0 1 1 2 2 3 2 2 3 3 3 3 4 3 4 4
3 3 4 4 4 4 4 4 4 5 4 2 2 4 4 3 1 1 1 0 1 1 1 1 2 1 1 0 0 1 2 3 4 4 4 4 4 4 4 4 4 4 4
2 3 3 4 4 4 4 4 3 3 5 3 1 1 2 3 3 1 1 1 1 1 1 1 1 1 1 0 0 1 2 3 4 4 4 4 4 4 5 5 4 4 5
1 2 2 3 3 3 4 4 4 3 3 4 3 2 2 2 2 3 1 0 1 0 0 1 1 1 0 0 0 2 3 3 4 4 5 5 5 5 5 5 4 4 5
1 1 2 2 2 3 3 3 3 4 3 3 3 2 3 3 2 2 2 2 1 1 0 0 0 1 0 0 1 2 3 4 4 5 5 5 5 5 5 5 5 5 5
1 1 2 2 1 2 2 3 3 3 3 4 3 2 2 2 2 2 3 2 1 0 0 0 1 0 0 0 1 2 2 3 4 5 5 5 5 5 5 5 5 6 6
2 2 2 2 2 2 2 3 3 2 3 3 3 2 2 1 1 2 3 3 2 0 1 2 1 1 1 1 1 2 2 3 4 5 5 5 5 4 4 5 5 6 6
2 3 3 3 2 2 2 3 2 2 2 2 2 2 1 1 1 1 2 3 4 2 2 2 1 1 1 1 1 1 1 3 4 4 4 4 4 4 5 5 5 6 6
3 3 3 3 3 2 2 2 2 2 3 2 1 2 1 1 1 1 2 2 2 3 3 2 2 2 2 1 2 1 2 4 4 4 5 5 5 5 5 6 6 7 7
3 3 3 3 3 3 2 3 2 3 3 2 1 2 1 1 1 1 1 1 2 2 3 2 1 1 1 2 2 2 2 2 2 5 5 6 6 6 6 6 7 7 7
3 4 3 3 3 3 2 3 3 2 3 2 2 1 1 1 1 1 1 2 2 2 3 3 2 1 2 2 2 2 2 2 2 5 6 6 7 7 6 6 7 7 7
4 3 4 3 3 3 2 3 3 2 2 2 2 2 1 2 2 1 2 2 2 1 2 2 2 1 1 1 1 2 2 2 3 4 5 6 7 7 7 7 7 8 7
4 4 4 3 3 3 3 3 3 3 2 1 1 1 1 2 2 2 2 2 2 2 2 1 1 1 1 1 1 1 2 2 3 3 4 5 6 7 8 8 8 8 8
4 4 4 3 3 3 3 3 3 3 3 2 1 1 0 1 1 2 2 2 2 2 2 2 1 1 1 1 2 2 3 3 3 3 3 3 3 3 4 7 8 8 9
4 4 4 4 3 2 3 4 3 3 3 2 1 0 0 0 0 0 1 2 3 3 3 3 2 3 3 3 2 2 2 3 4 2 2 4 2 4 4 4 8 10 9
4 4 3 4 3 3 4 4 4 3 3 2 2 1 1 0 0 0 0 1 2 3 4 4 4 5 4 4 3 3 3 4 5 3 2 5 3 5 4 5 10 10 10
4 4 3 3 3 3 4 4 4 2 2 2 2 2 2 1 2 1 1 1 1 2 3 3 4 5 4 3 4 4 4 3 3 2 2 4 4 5 5 4 9 10 10
4 4 3 3 3 3 4 4 4 2 2 1 1 2 2 2 3 2 1 1 2 3 3 3 4 5 5 5 4 1 2 2 4 3 2 3 3 4 4 4 6 9 10
4 4 3 3 3 3 4 4 3 2 2 1 1 2 3 3 3 3 2 2 3 3 2 2 3 4 3 3 4 3 3 3 4 4 2 2 2 2 4 3 3 4 5
Wind_Direction
171 170 166 162 162 156 154 150 150 150 149 152 158 151 151 149 149 145 144 151 146 141 142 142 138 137 132 125 121 112 102 90 78 69 62 57 60 59 55 50 46 42 41
172 173 169 168 170 166 163 158 158 153 149 144 150 154 155 154 151 150 144 148 146 142 145 149 144 144 141 138 128 122 115 101 76 61 65 64 61 55 51 39 31 28 26
174 172 171 174 177 169 158 148 145 138 141 138 143 149 146 156 157 157 151 150 154 146 145 156 155 154 155 149 140 128 122 105 85 74 65 63 59 49 36 28 21 17 15
175 170 169 179 175 162 156 153 150 145 146 143 143 148 140 146 164 165 156 153 153 151 148 145 151 154 168 165 151 140 136 119 109 89 74 57 42 24 7 7 4 358 353
176 172 172 175 167 157 160 164 151 149 150 149 151 136 133 147 163 160 156 159 157 151 151 144 141 142 161 191 195 176 165 134 130 129 115 50 352 326 317 325 324 324 329
175 168 168 165 160 156 162 160 149 142 149 153 136 107 84 113 127 147 163 158 155 148 140 128 129 136 127 132 228 236 237 247 193 179 221 260 285 294 289 302 303 311 309
168 163 163 160 165 168 173 166 153 144 133 130 107 80 27 41 82 107 144 147 149 146 132 129 123 107 84 77 38 282 260 268 283 283 278 282 283 288 288 293 297 303 297
170 168 163 164 168 161 162 166 151 143 134 142 135 126 99 10 352 22 105 156 159 141 137 142 138 135 128 92 354 320 287 274 278 286 289 287 289 290 289 289 295 301 303
163 165 164 165 168 168 169 170 168 155 154 156 143 145 148 184 220 337 347 145 150 147 161 162 155 154 148 125 312 320 311 291 279 277 282 281 283 290 290 288 295 301 304
156 158 157 163 166 165 166 170 165 156 152 159 144 103 138 147 144 152 323 348 120 148 165 151 140 141 139 131 337 338 326 312 301 292 285 283 284 287 291 292 298 303 304
147 148 150 156 157 154 159 160 152 151 156 160 160 143 115 93 106 137 175 275 350 310 190 179 153 138 129 88 324 336 337 317 305 300 293 289 289 292 296 296 300 312 316
141 133 126 139 144 143 152 159 155 156 156 154 156 150 153 149 159 148 160 178 204 262 288 147 165 180 174 72 332 351 341 329 311 308 309 309 303 301 300 300 304 308 310
139 153 120 123 133 136 141 138 139 151 153 152 161 169 162 167 158 150 145 154 167 259 336 313 253 219 14 340 317 345 339 337 327 316 311 312 313 313 310 307 309 308 306
156 148 129 130 121 120 125 127 134 140 138 146 153 158 158 177 161 159 156 151 151 261 271 257 265 237 266 270 301 325 321 335 335 326 320 323 325 320 313 312 309 307 305
137 133 133 131 118 109 118 125 123 128 127 136 143 147 165 185 170 167 158 161 163 190 241 242 246 257 261 252 284 290 297 318 324 319 318 322 322 322 312 306 306 303 301
139 139 137 134 124 120 121 122 120 115 111 119 136 137 138 154 164 166 173 179 173 178 217 222 229 251 258 275 289 287 283 314 313 311 310 307 305 304 303 304 303 301 300
144 143 146 142 135 137 138 131 133 128 128 123 124 148 161 150 138 144 165 176 174 168 210 250 245 248 234 253 288 294 292 289 294 304 303 298 294 294 293 294 296 296 296
154 148 143 139 141 144 146 139 138 139 143 145 149 147 170 153 147 159 170 186 188 183 192 222 240 241 247 240 253 275 295 298 288 296 297 296 290 289 291 294 295 293 292
158 150 144 150 153 152 146 142 145 149 150 157 161 163 194 172 180 187 186 197 194 187 190 197 234 239 259 250 267 287 286 284 289 295 292 293 291 289 287 288 291 293 292
162 155 152 158 159 155 148 141 135 134 131 129 137 156 188 197 205 202 198 200 183 170 167 176 235 255 265 268 232 264 289 285 288 295 288 294 296 294 290 290 292 290 288
156 153 149 148 146 150 157 150 143 138 132 120 100 111 169 202 209 212 204 198 187 183 179 184 224 246 257 252 251 250 275 288 282 271 280 289 289 285 284 288 289 285 283
141 142 147 148 149 159 159 161 154 150 145 144 149 191 307 246 149 240 219 218 215 206 206 206 219 231 244 243 247 255 271 291 284 269 277 287 281 277 275 270 282 285 283
146 148 155 155 160 171 172 164 154 147 151 167 179 194 246 279 326 179 297 295 250 246 233 221 223 231 233 229 225 247 251 257 266 270 278 281 278 276 276 281 286 281 282
159 161 166 167 166 181 176 172 163 154 156 173 187 196 205 230 233 222 213 249 262 260 251 234 227 236 239 232 225 237 245 267 274 262 240 271 278 278 285 278 279 276 278
161 165 170 172 175 187 185 178 171 161 157 189 212 205 205 220 248 251 222 242 279 287 300 283 277 273 272 269 266 252 249 270 283 275 238 247 269 289 286 274 272 274 278
166 164 168 180 184 192 195 188 188 172 178 210 237 238 234 237 249 247 224 217 253 270 275 301 304 298 284 266 265 243 225 248 277 276 232 229 267 302 293 266 261 268 273